Regional Weather Roundup
Issued by NWS

Home | Current Version | Previous Version | Graphics & Text | Print | Product List | Glossary On
Versions: 1 2 3 4 5 6 7 8 9 10 11 12 13 14 15 16 17 18 19 20 21 22 23 24 25 26 27 28 29 30 31 32 33 34 35 36 37 38 39 40 41 42 43 44 45 46 47 48 49 50
657
ASUS45 KCYS 071610
RWRWY

WYOMING REGIONAL WEATHER ROUNDUP
NATIONAL WEATHER SERVICE CHEYENNE WY
900 AM MST SUN FEB 07 2016

NOTE:  "FAIR" INDICATES FEW OR NO CLOUDS BELOW 12,000 FEET
WITH NO SIGNIFICANT WEATHER AND/OR OBSTRUCTIONS TO VISIBILITY.

WYZ001-071700-
YELLOWSTONE NATIONAL PARK

CITY           SKY/WX    TMP DP  RH WIND       PRES   REMARKS
LK YELLOWSTONE   N/A      7   3  84 CALM      30.43R
W YELLOWSTONE  NOT AVBL

$$
WYZ002>013-054>058-071-098>099-071700-
NORTHERN WYOMING

CITY           SKY/WX    TMP DP  RH WIND       PRES   REMARKS
JACKSON        SUNNY     27  19  74 S7        30.44R WCI  19
CODY           FAIR      27  18  69 N3        30.38R
GREYBULL       FAIR      35  11  36 NW21G29   30.37R WCI  24
WORLAND        FAIR      23  15  71 SW9       30.39R WCI  13
SHERIDAN       CLOUDY    32  17  54 NW21G30   30.37R WCI  20
BUFFALO        FLURRIES  30  12  47 NW29G41   30.31R WCI  15
GILLETTE       FAIR      30  13  49 NW25G33   30.28R WCI  16
HULETT         FAIR      32  10  40 NW22G33   30.23R WCI  19
NEWCASTLE      FAIR      30   9  40 NW23G36   30.24R WCI  17

$$
WYZ014>020-022>026-101>103-071700-
CENTRAL WYOMING

CITY           SKY/WX    TMP DP  RH WIND       PRES   REMARKS
BIG PINEY      FAIR      28  18  66 NW18      30.40R WCI  15
PINEDALE       FAIR      21  16  79 NW14      30.39R WCI   8
DUBOIS         FAIR      28  12  50 NW25G35   30.30R WCI  14
LANDER         FAIR      23  11  60 MISG      30.34R
RIVERTON       FAIR      24  11  57 SE8       30.36R WCI  15
CASPER         CLOUDY    21  12  68 SW14      30.34R WCI   8
DOUGLAS        CLOUDY    27  20  75 NW18        N/A  WCI  14

$$
WYZ021-027>030-104>119-071700-
SOUTHERN WYOMING

CITY           SKY/WX    TMP DP  RH WIND       PRES   REMARKS
EVANSTON       FAIR      21  13  71 SW12      30.49R WCI   9
FORT BRIDGER   SUNNY     27  18  69 W23       30.48R WCI  12
ROCK SPRINGS   FAIR      27  19  72 W28G38    30.40R WCI  11
DIXON          FAIR       8   4  80 E3        30.46R
RAWLINS        FAIR      23  16  74 W23G35    30.34R WCI   7
SARATOGA       FAIR      27  19  74 W21       30.35R WCI  13
LARAMIE        FAIR      26  17  68 W16       30.24R WCI  14
CHEYENNE       CLOUDY    24  19  81 N16G22    30.26R WCI  11
TORRINGTON     CLOUDY    31  21  66 NW20G25   30.29R WCI  19
PINE BLUFFS    LGT SNOW  27  23  86 NW18G26   30.30R WCI  13

$$




USA.gov is the U.S. government's official web portal to all federal, state and local government web resources and services.